• Join FlightAware (Why Join?)
  • Login
  • US Flag 
12:40PM EDT


 

Airport Tracker/Info


-or-


 

Live Flight TrackerFlight Track Log ✈ VH-FES ✈ 22-Mar-2014 ✈ YGIG - YGIG

Flight Track Log - Related Links

Times and Time Zones

All times are in EDT time to prevent confusion due to time zone crossing. See the VH-FES flight status page for this flight to view local times or setup timezone preferences in your user account.

Time Position Orientation Groundspeed Altitude Reporting Facility
EDT Latitude Longitude Course Direction KTS MPH feet Rate Location/Type
10:42PM -31.7463 115.7145 161° South 106 122 900  Level Aus ATC (RADAR)
10:43PM -31.7589 115.7196 161° South 97 112 1,000 -240 Climbing Aus ATC (RADAR)
10:43PM -31.7700 115.7237 163° South 101 116 700 -540 Descending Aus ATC (RADAR)
10:44PM -31.7892 115.7275 170° South 119 137 500 -120 Descending Aus ATC (RADAR)
10:44PM -31.8099 115.7261 183° South 110 127 600 -120 Climbing Aus ATC (RADAR)
10:45PM -31.8271 115.7329 161° South 100 115 400 -120 Descending Aus ATC (RADAR)
10:46PM -31.8441 115.7466 146° Southeast 93 107 500 120 Climbing Aus ATC (RADAR)
10:46PM -31.8505 115.7475 174° South 92 106 600 120 Climbing Aus ATC (RADAR)
10:47PM -31.8828 115.7480 179° South 99 114 700 240 Climbing Aus ATC (RADAR)
10:48PM -31.8947 115.7491 176° South 86 99 1,000 480 Climbing Aus ATC (RADAR)
10:48PM -31.9029 115.7504 172° South 87 100 1,100 540 Climbing Aus ATC (RADAR)
10:49PM -31.9175 115.7486 186° South 90 104 1,500 240 Climbing Aus ATC (RADAR)
10:49PM -31.9410 115.7477 182° South 104 120 1,500 -120 Level Aus ATC (RADAR)
10:50PM -31.9621 115.7475 181° South 112 129 1,400 -120 Descending Aus ATC (RADAR)
10:51PM -31.9894 115.7450 184° South 118 136 1,400  Level Aus ATC (RADAR)
10:51PM -31.9973 115.7507 148° Southeast 113 130 1,400 120 Level Aus ATC (RADAR)
10:52PM -31.9895 115.7837 75° East 85 98 1,600 120 Climbing Aus ATC (RADAR)
10:53PM -31.9872 115.7957 77° East 87 100 1,600  Level Aus ATC (RADAR)
10:53PM -31.9823 115.8121 71° East 90 104 1,600 -120 Level Aus ATC (RADAR)
10:54PM -31.9744 115.8342 67° East 96 110 1,500 -180 Descending Aus ATC (RADAR)
10:55PM -31.9696 115.8490 69° East 94 108 1,400  Descending Aus ATC (RADAR)
10:56PM -31.9568 115.8685 52° Northeast 94 108 1,500 60 Climbing Aus ATC (RADAR)
10:56PM -31.9484 115.8606 322° Northwest 106 122 1,500  Level Aus ATC (RADAR)
10:56PM -31.9394 115.8391 296° West 121 139 1,500  Level Aus ATC (RADAR)
10:57PM -31.9201 115.8060 304° West 120 138 1,500  Level Aus ATC (RADAR)
10:58PM -31.9122 115.7922 304° West 120 138 1,500 -420 Level Aus ATC (RADAR)
10:59PM -31.9014 115.7677 298° West 125 144 1,100 -480 Descending Aus ATC (RADAR)
10:59PM -31.8816 115.7477 319° Northwest 120 138 900 -300 Descending Aus ATC (RADAR)
11:00PM -31.8618 115.7464 357° North 108 124 700 -300 Descending Aus ATC (RADAR)
11:01PM -31.8379 115.7461 359° North 110 127 500 -120 Descending Aus ATC (RADAR)
11:01PM -31.8283 115.7377 323° Northwest 105 121 600 -120 Climbing Aus ATC (RADAR)
11:02PM -31.8138 115.7295 334° Northwest 103 119 400 180 Descending Aus ATC (RADAR)
11:03PM -31.7937 115.7316 North 73 84 900 480 Climbing Aus ATC (RADAR)
11:03PM -31.7841 115.7309 357° North 81 93 1,100 60 Climbing Aus ATC (RADAR)
11:04PM -31.7655 115.7287 354° North 101 116 1,000  Descending Aus ATC (RADAR)
11:04PM -31.7463 115.7249 350° North 103 119 1,100 60 Climbing Aus ATC (RADAR)
11:05PM -31.7314 115.7285 12° North 93 107 1,100 -180 Level Aus ATC (RADAR)
11:06PM -31.7197 115.7384 36° Northeast 92 106 900 -240 Descending Aus ATC (RADAR)
11:06PM -31.7155 115.7317 306° West 96 110 900 180 Level Aus ATC (RADAR)
11:07PM -31.6996 115.7309 357° North 97 112 1,100 240 Climbing Aus ATC (RADAR)
11:08PM -31.6662 115.7316 North 76 87 1,400 240 Climbing Aus ATC (RADAR)
11:08PM -31.6565 115.7317 360° North 82 94 1,600 300 Climbing Aus ATC (RADAR)
11:09PM -31.6446 115.7371 21° North 80 92 1,700 180 Climbing Aus ATC (RADAR)
11:10PM -31.6244 115.7343 353° North 101 116 1,900 -120 Climbing Aus ATC (RADAR)
11:10PM -31.6146 115.7231 316° Northwest 105 121 1,600 120 Descending Aus ATC (RADAR)
11:11PM -31.6025 115.7324 33° Northeast 85 98 2,100 660 Climbing Aus ATC (RADAR)
11:11PM -31.5911 115.7402 30° Northeast 82 94 2,400 240 Climbing Aus ATC (RADAR)
11:12PM -31.5817 115.7449 23° Northeast 73 84 2,400 -120 Level Aus ATC (RADAR)
11:13PM -31.5701 115.7444 358° North 86 99 2,300 -360 Descending Aus ATC (RADAR)
11:13PM -31.5621 115.7508 34° Northeast 99 114 2,000 -600 Descending Aus ATC (RADAR)
11:14PM -31.5499 115.7635 42° Northeast 98 113 1,800 -180 Descending Aus ATC (RADAR)
11:15PM -31.5345 115.7762 35° Northeast 88 101 1,800 -180 Level Aus ATC (RADAR)
11:15PM -31.5224 115.7854 33° Northeast 88 101 1,600 -180 Descending Aus ATC (RADAR)
11:16PM -31.5096 115.7946 31° Northeast 93 107 1,600 -180 Level Aus ATC (RADAR)
11:16PM -31.4964 115.8048 34° Northeast 98 113 1,400 -180 Descending Aus ATC (RADAR)
11:17PM -31.4836 115.8158 36° Northeast 84 97 1,400 -360 Level Aus ATC (RADAR)
11:18PM -31.4711 115.8336 50° Northeast 86 99 900 -720 Descending Aus ATC (RADAR)
11:18PM -31.4683 115.8450 74° East 84 97 500 -720 Descending Aus ATC (RADAR)
11:19PM -31.4660 115.8569 77° East 63 72 200 -300 Descending Aus ATC (RADAR)
11:19PM -31.4641 115.8628 70° East 44 51 200  Level Aus ATC (RADAR)